• In Belarus
  • List of Countries
  • For 7 days
  • Water Temperature
  • Satellite Maps
  • Weather Map
  • Weather Widgets
  • user-avatar
    Login

    Hourly Weather Leribe

    Today, 16 October, Tuesday

    Time Temperature Precipitation Wind Pressure Humidity
    00:00 +15°C° 0 mm 1 mps 629 mmHg 38%
    01:00 +14°C° 0 mm 1 mps 629 mmHg 39%
    02:00 +13°C° 0 mm 1 mps 628 mmHg 40%
    03:00 +13°C° 0 mm 1 mps 628 mmHg 41%
    04:00 +13°C° 0 mm 1 mps 628 mmHg 41%
    05:00 +12°C° 0 mm 1 mps 628 mmHg 41%
    06:00 +14°C° 0 mm 1 mps 629 mmHg 36%
    07:00 +16°C° 0 mm 1 mps 630 mmHg 30%
    08:00 +20°C° 0 mm 1 mps 631 mmHg 26%
    09:00 +20°C° 0 mm 2 mps 631 mmHg 23%
    10:00 +21°C° 0 mm 3 mps 631 mmHg 19%
    11:00 +23°C° 0 mm 4 mps 631 mmHg 16%
    12:00 +23°C° 0 mm 5 mps 631 mmHg 15%
    13:00 +25°C° 0 mm 5 mps 631 mmHg 14%
    14:00 +26°C° 0 mm 6 mps 630 mmHg 14%
    15:00 +26°C° 0 mm 6 mps 630 mmHg 14%
    16:00 +24°C° 0 mm 6 mps 630 mmHg 15%
    17:00 +24°C° 0 mm 6 mps 629 mmHg 15%
    18:00 +22°C° 0 mm 4 mps 629 mmHg 17%
    19:00 +21°C° 0 mm 3 mps 629 mmHg 19%
    20:00 +19°C° 0 mm 2 mps 629 mmHg 21%
    21:00 +19°C° 0 mm 2 mps 629 mmHg 21%
    22:00 +19°C° 0 mm 1 mps 629 mmHg 21%
    23:00 +19°C° 0 mm 1 mps 629 mmHg 22%

    Tomorrow, 17 October, Wednesday

    Time Temperature Precipitation Wind Pressure Humidity
    00:00 +18°C° 0 mm 1 mps 629 mmHg 23%
    01:00 +18°C° 0 mm 1 mps 629 mmHg 25%
    02:00 +16°C° 0 mm 1 mps 628 mmHg 27%
    03:00 +16°C° 0 mm 1 mps 628 mmHg 30%
    04:00 +16°C° 0 mm 1 mps 628 mmHg 34%
    05:00 +15°C° 0 mm 1 mps 627 mmHg 37%
    06:00 +16°C° 0 mm 1 mps 628 mmHg 37%
    07:00 +18°C° 0 mm 2 mps 629 mmHg 36%
    08:00 +19°C° 0 mm 2 mps 629 mmHg 35%
    09:00 +20°C° 0 mm 3 mps 629 mmHg 31%
    10:00 +21°C° 0 mm 4 mps 630 mmHg 27%
    11:00 +23°C° 0 mm 5 mps 630 mmHg 24%
    12:00 +23°C° 0 mm 5 mps 629 mmHg 24%
    13:00 +23°C° 0 mm 6 mps 629 mmHg 24%
    14:00 +23°C° 0 mm 6 mps 628 mmHg 24%
    15:00 +22°C° 0 mm 7 mps 628 mmHg 25%
    16:00 +22°C° 0 mm 7 mps 628 mmHg 26%
    17:00 +22°C° 0 mm 7 mps 628 mmHg 28%
    18:00 +20°C° 0 mm 5 mps 628 mmHg 33%
    19:00 +18°C° 0 mm 4 mps 628 mmHg 38%
    20:00 +17°C° 0 mm 2 mps 628 mmHg 43%
    21:00 +16°C° 0 mm 2 mps 629 mmHg 46%
    22:00 +15°C° 0 mm 1 mps 629 mmHg 50%
    23:00 +14°C° 0 mm 1 mps 629 mmHg 54%

    Day after tomorrow, 18 October, Thursday

    Time Temperature Precipitation Wind Pressure Humidity
    00:00 +14°C° 0 mm 1 mps 628 mmHg 57%
    01:00 +13°C° 0 mm 1 mps 628 mmHg 60%
    02:00 +12°C° 0 mm 1 mps 627 mmHg 63%
    03:00 +12°C° 0 mm 1 mps 627 mmHg 66%
    04:00 +11°C° 0 mm 1 mps 627 mmHg 70%
    05:00 +11°C° 0 mm 1 mps 627 mmHg 73%
    06:00 +13°C° 0 mm 1 mps 628 mmHg 63%
    07:00 +15°C° 0 mm 1 mps 629 mmHg 54%
    08:00 +17°C° 0 mm 2 mps 630 mmHg 44%
    09:00 +19°C° 0 mm 2 mps 630 mmHg 36%
    10:00 +21°C° 0 mm 2 mps 630 mmHg 28%
    11:00 +24°C° 0 mm 2 mps 630 mmHg 19%
    12:00 +24°C° 0 mm 2 mps 630 mmHg 18%
    13:00 +25°C° 0 mm 3 mps 630 mmHg 16%
    14:00 +26°C° 0 mm 4 mps 629 mmHg 15%
    15:00 +26°C° 0 mm 4 mps 629 mmHg 15%
    16:00 +26°C° 0 mm 4 mps 628 mmHg 16%
    17:00 +25°C° 0 mm 4 mps 628 mmHg 16%
    18:00 +24°C° 0 mm 3 mps 628 mmHg 19%
    19:00 +21°C° 0 mm 2 mps 628 mmHg 21%
    20:00 +20°C° 0 mm 1 mps 628 mmHg 24%
    21:00 +19°C° 0 mm 1 mps 628 mmHg 25%
    22:00 +19°C° 0 mm 1 mps 628 mmHg 25%
    23:00 +18°C° 0 mm 1 mps 628 mmHg 26%

    19 October, Friday

    Time Temperature Precipitation Wind Pressure Humidity
    00:00 +18°C° 0 mm 1 mps 628 mmHg 26%
    01:00 +16°C° 0 mm 1 mps 627 mmHg 26%
    02:00 +16°C° 0 mm 1 mps 627 mmHg 26%
    03:00 +15°C° 0 mm 1 mps 627 mmHg 27%
    04:00 +15°C° 0 mm 1 mps 627 mmHg 27%
    05:00 +14°C° 0 mm 1 mps 627 mmHg 28%
    06:00 +18°C° 0 mm 1 mps 628 mmHg 25%
    07:00 +20°C° 0 mm 1 mps 629 mmHg 22%
    08:00 +23°C° 0 mm 1 mps 631 mmHg 19%
    09:00 +25°C° 0 mm 1 mps 631 mmHg 18%
    10:00 +26°C° 0 mm 2 mps 631 mmHg 17%
    11:00 +28°C° 0 mm 3 mps 631 mmHg 16%
    12:00 +29°C° 0 mm 3 mps 631 mmHg 15%
    13:00 +29°C° 0 mm 4 mps 631 mmHg 15%
    14:00 +30°C° 0 mm 5 mps 630 mmHg 14%
    15:00 +30°C° 0 mm 5 mps 630 mmHg 14%
    16:00 +30°C° 0 mm 5 mps 630 mmHg 15%
    17:00 +29°C° 0 mm 6 mps 629 mmHg 15%
    18:00 +27°C° 0 mm 4 mps 629 mmHg 18%
    19:00 +25°C° 0 mm 3 mps 629 mmHg 20%
    20:00 +23°C° 0 mm 1 mps 629 mmHg 23%
    21:00 +23°C° 0 mm 1 mps 629 mmHg 25%
    22:00 +22°C° 0 mm 1 mps 629 mmHg 28%
    23:00 +22°C° 0 mm 1 mps 629 mmHg 30%

    20 October, Saturday

    Time Temperature Precipitation Wind Pressure Humidity
    00:00 +20°C° 0 mm 2 mps 629 mmHg 34%
    01:00 +19°C° 0 mm 2 mps 628 mmHg 38%
    02:00 +18°C° 0 mm 2 mps 628 mmHg 42%
    03:00 +18°C° 0.2 mm 2 mps 628 mmHg 47%
    04:00 +18°C° 0.2 mm 1 mps 628 mmHg 52%
    05:00 +18°C° 0.2 mm 1 mps 628 mmHg 56%
    06:00 +18°C° 0.3 mm 2 mps 629 mmHg 53%
    07:00 +19°C° 0.3 mm 2 mps 630 mmHg 50%
    08:00 +20°C° 0.3 mm 2 mps 631 mmHg 46%
    09:00 +21°C° 0 mm 2 mps 631 mmHg 44%
    10:00 +22°C° 0 mm 3 mps 631 mmHg 42%
    11:00 +22°C° 0 mm 3 mps 632 mmHg 39%
    12:00 +24°C° 0.1 mm 3 mps 631 mmHg 36%
    13:00 +24°C° 0.1 mm 3 mps 631 mmHg 33%
    14:00 +25°C° 0.1 mm 4 mps 631 mmHg 30%
    15:00 +25°C° 0 mm 4 mps 631 mmHg 29%
    16:00 +23°C° 0 mm 4 mps 631 mmHg 27%
    17:00 +23°C° 0 mm 4 mps 632 mmHg 25%
    18:00 +21°C° 0 mm 4 mps 632 mmHg 31%
    19:00 +19°C° 0 mm 3 mps 632 mmHg 36%
    20:00 +17°C° 0 mm 3 mps 632 mmHg 41%
    21:00 +16°C° 0 mm 3 mps 633 mmHg 46%
    22:00 +13°C° 0 mm 3 mps 633 mmHg 50%
    23:00 +12°C° 0 mm 3 mps 633 mmHg 55%

    21 October, Sunday

    Time Temperature Precipitation Wind Pressure Humidity
    00:00 +11°C° 0 mm 3 mps 633 mmHg 55%
    01:00 +10°C° 0 mm 3 mps 632 mmHg 56%
    02:00 +9°C° 0 mm 3 mps 632 mmHg 56%
    03:00 +8°C° 0 mm 3 mps 632 mmHg 54%
    04:00 +7°C° 0 mm 2 mps 633 mmHg 52%
    05:00 +7°C° 0 mm 2 mps 633 mmHg 50%
    06:00 +8°C° 0 mm 2 mps 633 mmHg 43%
    07:00 +10°C° 0 mm 2 mps 634 mmHg 35%
    08:00 +12°C° 0 mm 2 mps 635 mmHg 27%
    09:00 +15°C° 0 mm 2 mps 635 mmHg 22%
    10:00 +17°C° 0 mm 2 mps 636 mmHg 17%
    11:00 +19°C° 0 mm 2 mps 636 mmHg 11%
    12:00 +20°C° 0 mm 2 mps 636 mmHg 10%
    13:00 +21°C° 0 mm 2 mps 635 mmHg 9%
    14:00 +23°C° 0 mm 2 mps 635 mmHg 8%
    15:00 +21°C° 0 mm 2 mps 635 mmHg 8%
    16:00 +21°C° 0 mm 3 mps 635 mmHg 9%
    17:00 +20°C° 0 mm 3 mps 635 mmHg 10%
    18:00 +18°C° 0 mm 3 mps 634 mmHg 14%
    19:00 +16°C° 0 mm 3 mps 634 mmHg 19%
    20:00 +13°C° 0 mm 3 mps 634 mmHg 23%
    21:00 +12°C° 0 mm 3 mps 634 mmHg 26%
    22:00 +12°C° 0 mm 2 mps 634 mmHg 29%
    23:00 +10°C° 0 mm 2 mps 633 mmHg 32%
    Show more